Laredo, TX

9:15 PM CDT on April 23, 2017 (GMT -0500)
Laredo International

Weather History for KLRD - May, 2012

Change the Weather History Date:

Thursday, May 17, 2012

  Actual Average Record
Temperature  
Mean Temperature 79 °F 83 °F  
Max Temperature 92 °F 94 °F 106 °F (1995)
Min Temperature 65 °F 72 °F 53 °F (1970)
Degree Days  
Heating Degree Days 0 0  
Month to date heating degree days 0 0  
Since 1 July heating degree days 674 926  
Cooling Degree Days 14 18  
Month to date cooling degree days 284 274  
Year to date cooling degree days 1209 874  
Growing Degree Days 28 (Base 50)    
Moisture  
Dew Point 60 °F    
Average Humidity 56    
Maximum Humidity 93    
Minimum Humidity 28    
Precipitation  
Precipitation 0.00 in 0.09 in 2.07 in (1984)
Month to date precipitation 1.34 1.36  
Year to date precipitation 2.61 5.74  
Sea Level Pressure  
Sea Level Pressure 29.97 in    
Wind  
Wind Speed 8 mph (SSE)    
Max Wind Speed 18 mph    
Max Gust Speed 23 mph    
Visibility 10 miles    
Events      
T = Trace of Precipitation, MM = Missing Value Source: NWS Daily Summary

Daily Weather History Graph

Daily Weather History Graph

Search for Another Location

Airport or City:

Trip Planner

Search our weather history database for the weather conditions in past years. The results will help you decide how hot, cold, wet, or windy it might be!

Date:

Astronomy

May. 17, 2012 Rise Set
Actual Time 6:47 AM CDT 8:21 PM CDT
Civil Twilight 6:22 AM CDT 8:46 PM CDT
Nautical Twilight 5:51 AM CDT 9:17 PM CDT
Astronomical Twilight 5:19 AM CDT 9:49 PM CDT
Moon 4:33 AM CDT (5/17) 5:45 PM CDT (5/17)
Length of Visible Light 14h 24m
Length of Day
13h 33m
Waning Crescent, 9% of the Moon is Illuminated
May 17
Waning Crescent
May 20
New
May 28
First Quarter
Jun 4
Full
Jun 11
Last Quarter

Hourly Weather History & Observations

Time (CDT) Temp. Heat Index Dew Point Humidity Pressure Visibility Wind Dir Wind Speed Gust Speed Precip Events Conditions
12:56 AM 72.9 °F - 61.9 °F 68% 30.02 in 10.0 mi SSE 9.2 mph - N/A   Clear
1:56 AM 70.9 °F - 61.9 °F 73% 30.01 in 10.0 mi SSE 10.4 mph - N/A   Clear
2:56 AM 70.0 °F - 63.0 °F 78% 30.01 in 10.0 mi South 8.1 mph - N/A   Clear
3:56 AM 68.9 °F - 63.9 °F 84% 30.00 in 10.0 mi SSW 11.5 mph - N/A   Clear
4:56 AM 70.0 °F - 64.9 °F 84% 29.99 in 10.0 mi SW 8.1 mph - N/A   Clear
5:56 AM 68.0 °F - 64.4 °F 88% 30.03 in 10.0 mi SSE 4.6 mph - N/A   Clear
6:56 AM 65.8 °F - 63.9 °F 93% 30.01 in 6.0 mi East 5.8 mph - N/A   Clear
7:56 AM 66.9 °F - 63.9 °F 90% 30.03 in 6.0 mi East 4.6 mph - N/A   Haze
8:56 AM 72.0 °F - 64.9 °F 78% 30.04 in 10.0 mi SE 4.6 mph - N/A   Haze
9:56 AM 77.0 °F - 64.9 °F 66% 30.03 in 10.0 mi South 4.6 mph - N/A   Clear
10:56 AM 81.0 °F 82.5 °F 63.9 °F 56% 30.02 in 10.0 mi ESE 5.8 mph - N/A   Clear
11:56 AM 84.9 °F 84.8 °F 59.9 °F 43% 30.01 in 10.0 mi SE 4.6 mph - N/A   Clear
12:56 PM 86.9 °F 85.6 °F 56.8 °F 36% 29.99 in 10.0 mi Variable 6.9 mph - N/A   Partly Cloudy
1:56 PM 88.0 °F 86.7 °F 56.8 °F 35% 29.97 in 10.0 mi Variable 4.6 mph - N/A   Partly Cloudy
2:56 PM 90.0 °F 88.1 °F 55.9 °F 31% 29.94 in 10.0 mi Variable 4.6 mph - N/A   Partly Cloudy
3:56 PM 90.0 °F 87.9 °F 54.9 °F 30% 29.92 in 10.0 mi SSE 6.9 mph - N/A   Scattered Clouds
4:56 PM 90.0 °F 87.9 °F 54.9 °F 30% 29.89 in 10.0 mi Variable 5.8 mph - N/A   Partly Cloudy
5:56 PM 91.9 °F 89.8 °F 54.9 °F 28% 29.88 in 10.0 mi SE 12.7 mph - N/A   Partly Cloudy
6:56 PM 91.4 °F 89.1 °F 53.6 °F 28% 29.90 in 10.0 mi SSE 10.4 mph - N/A   Clear
7:56 PM 88.9 °F 86.9 °F 54.9 °F 31% 29.87 in 10.0 mi South 9.2 mph - N/A   Clear
8:56 PM 84.9 °F 83.7 °F 55.9 °F 37% 29.88 in 10.0 mi SSE 8.1 mph - N/A   Clear
9:56 PM 81.9 °F 81.8 °F 57.9 °F 44% 29.90 in 10.0 mi SE 9.2 mph - N/A   Clear
10:56 PM 79.9 °F - 59.9 °F 50% 29.92 in 10.0 mi SE 16.1 mph 24.2 mph N/A   Clear
11:56 PM 75.9 °F - 59.9 °F 57% 29.94 in 10.0 mi SE 13.8 mph - N/A   Clear